Radiation Dose at Monitoring Post of Fukushima Daini Nuclear Power Station
Date,Time,MP-1(microSv/h),MP-2(microSv/h),MP-3(microSv/h),MP-4(microSv/h),MP-5(microSv/h),MP-6(microSv/h),MP-7(microSv/h),Wind Direction,Wind Velocity(m/s),Rain
2015/01/02,00:00,0.590,0.378,0.626,0.567,0.564,0.257,0.230,west,0.9,No
2015/01/02,00:10,0.591,0.376,0.627,0.569,0.562,0.258,0.232,north-northeast,0.8,No
2015/01/02,00:20,0.591,0.377,0.626,0.567,0.561,0.258,0.230,north,1.9,No
2015/01/02,00:30,0.590,0.378,0.628,0.568,0.564,0.257,0.230,north,2.0,No
2015/01/02,00:40,0.590,0.378,0.628,0.569,0.562,0.258,0.231,north-northwest,2.1,No
2015/01/02,00:50,0.590,0.378,0.628,0.567,0.563,0.258,0.229,north,1.1,No
2015/01/02,01:00,0.590,0.377,0.626,0.565,0.563,0.257,0.231,north,0.9,No
2015/01/02,01:10,0.590,0.376,0.626,0.568,0.563,0.257,0.230,northwest,0.6,No
2015/01/02,01:20,0.590,0.377,0.627,0.567,0.563,0.257,0.231,-,CALM,No
2015/01/02,01:30,0.591,0.378,0.629,0.565,0.562,0.257,0.230,-,CALM,No
2015/01/02,01:40,0.588,0.378,0.627,0.566,0.562,0.257,0.230,-,CALM,No
2015/01/02,01:50,0.589,0.377,0.626,0.567,0.563,0.258,0.231,north-northwest,1.1,No
2015/01/02,02:00,0.589,0.377,0.627,0.567,0.563,0.258,0.230,west-northwest,0.8,No
2015/01/02,02:10,0.589,0.377,0.627,0.566,0.561,0.258,0.231,south,0.9,No
2015/01/02,02:20,0.589,0.378,0.626,0.569,0.561,0.257,0.230,-,CALM,No
2015/01/02,02:30,0.590,0.376,0.626,0.567,0.563,0.257,0.231,north-northwest,0.8,No
2015/01/02,02:40,0.589,0.377,0.626,0.568,0.562,0.257,0.232,north-northwest,2.8,No
2015/01/02,02:50,0.591,0.376,0.627,0.567,0.563,0.257,0.231,north,3.0,No
2015/01/02,03:00,0.590,0.378,0.626,0.567,0.562,0.257,0.230,north-northwest,3.3,No
2015/01/02,03:10,0.589,0.378,0.626,0.566,0.563,0.256,0.230,north,3.2,No
2015/01/02,03:20,0.589,0.378,0.626,0.568,0.561,0.256,0.230,north,2.7,No
2015/01/02,03:30,0.588,0.376,0.626,0.566,0.563,0.257,0.230,north,3.9,No
2015/01/02,03:40,0.587,0.378,0.625,0.567,0.565,0.257,0.229,north,3.6,No
2015/01/02,03:50,0.590,0.376,0.624,0.567,0.561,0.258,0.230,north,2.8,No
2015/01/02,04:00,0.589,0.376,0.626,0.568,0.563,0.257,0.230,north,2.8,No
2015/01/02,04:10,0.589,0.377,0.626,0.566,0.562,0.257,0.231,north,2.1,No
2015/01/02,04:20,0.590,0.377,0.625,0.566,0.561,0.256,0.231,north,0.8,No
2015/01/02,04:30,0.589,0.376,0.625,0.566,0.562,0.257,0.231,west-southwest,1.3,No
2015/01/02,04:40,0.587,0.379,0.626,0.568,0.561,0.257,0.231,west-northwest,0.7,No
2015/01/02,04:50,0.589,0.377,0.625,0.568,0.562,0.257,0.229,northwest,1.7,No
2015/01/02,05:00,0.589,0.376,0.627,0.567,0.561,0.257,0.229,northwest,1.9,No
2015/01/02,05:10,0.588,0.376,0.627,0.567,0.564,0.256,0.230,north-northwest,1.7,No
2015/01/02,05:20,0.589,0.376,0.626,0.566,0.564,0.258,0.231,northwest,0.6,No
2015/01/02,05:30,0.588,0.377,0.627,0.567,0.562,0.257,0.229,-,CALM,No
2015/01/02,05:40,0.589,0.378,0.626,0.568,0.564,0.257,0.230,west,0.8,No
2015/01/02,05:50,0.589,0.377,0.626,0.566,0.563,0.256,0.231,west-southwest,0.7,No
2015/01/02,06:00,0.589,0.377,0.626,0.566,0.561,0.257,0.230,south-southwest,0.5,No
2015/01/02,06:10,0.587,0.376,0.626,0.567,0.561,0.258,0.230,southwest,1.0,No
2015/01/02,06:20,0.588,0.376,0.626,0.567,0.563,0.257,0.229,west-southwest,1.5,No
2015/01/02,06:30,0.588,0.375,0.626,0.567,0.562,0.257,0.229,northwest,2.1,No
2015/01/02,06:40,0.590,0.378,0.628,0.567,0.563,0.257,0.230,north,1.2,No
2015/01/02,06:50,0.588,0.377,0.625,0.567,0.562,0.257,0.230,west-northwest,0.9,No
2015/01/02,07:00,0.587,0.377,0.625,0.567,0.562,0.257,0.229,south-southwest,0.9,No
2015/01/02,07:10,0.587,0.377,0.624,0.567,0.562,0.257,0.230,west-northwest,2.7,No
2015/01/02,07:20,0.587,0.376,0.625,0.565,0.561,0.256,0.230,west-northwest,4.8,No
2015/01/02,07:30,0.588,0.376,0.625,0.567,0.561,0.257,0.230,west,5.3,No
2015/01/02,07:40,0.588,0.377,0.625,0.567,0.562,0.256,0.229,west-northwest,1.9,No
2015/01/02,07:50,0.588,0.377,0.625,0.568,0.563,0.257,0.230,west,2.4,No
2015/01/02,08:00,0.586,0.376,0.625,0.566,0.560,0.257,0.230,west-northwest,1.0,No
2015/01/02,08:10,0.587,0.378,0.624,0.566,0.563,0.257,0.229,south-southeast,0.8,No
2015/01/02,08:20,0.588,0.377,0.626,0.567,0.561,0.256,0.229,-,CALM,No
2015/01/02,08:30,0.589,0.376,0.624,0.569,0.560,0.256,0.229,northeast,0.8,No
2015/01/02,08:40,0.589,0.377,0.626,0.568,0.561,0.255,0.229,-,CALM,No
2015/01/02,08:50,0.587,0.377,0.628,0.567,0.562,0.254,0.229,-,CALM,No
2015/01/02,09:00,0.589,0.377,0.628,0.568,0.563,0.256,0.229,north,1.9,No
2015/01/02,09:10,0.589,0.377,0.627,0.568,0.562,0.255,0.229,west-southwest,1.0,No
2015/01/02,09:20,0.588,0.378,0.626,0.569,0.563,0.257,0.228,west-northwest,2.2,No
2015/01/02,09:30,0.590,0.377,0.628,0.569,0.562,0.257,0.230,west,3.3,No
2015/01/02,09:40,0.587,0.377,0.628,0.567,0.563,0.257,0.229,west,6.7,No
2015/01/02,09:50,0.588,0.377,0.626,0.567,0.562,0.257,0.229,west-northwest,4.8,No
2015/01/02,10:00,0.590,0.377,0.627,0.569,0.564,0.258,0.229,northwest,2.3,No
2015/01/02,10:10,0.588,0.377,0.628,0.568,0.562,0.256,0.230,north-northwest,1.7,No
2015/01/02,10:20,0.590,0.378,0.629,0.569,0.563,0.256,0.231,northwest,1.1,No
2015/01/02,10:30,0.588,0.377,0.626,0.567,0.563,0.257,0.230,north,1.1,No
2015/01/02,10:40,0.589,0.377,0.628,0.569,0.562,0.258,0.230,north-northeast,1.4,No
2015/01/02,10:50,0.587,0.377,0.627,0.568,0.563,0.257,0.229,north-northeast,2.7,No
2015/01/02,11:00,0.589,0.377,0.627,0.569,0.564,0.257,0.230,north,3.5,No
2015/01/02,11:10,0.590,0.376,0.626,0.569,0.562,0.258,0.230,north-northwest,0.7,No
2015/01/02,11:20,0.588,0.378,0.628,0.569,0.562,0.257,0.230,north-northeast,2.5,No
2015/01/02,11:30,0.590,0.378,0.628,0.571,0.564,0.257,0.231,north-northwest,0.9,No
2015/01/02,11:40,0.589,0.377,0.628,0.569,0.563,0.257,0.230,north-northeast,0.7,No
2015/01/02,11:50,0.590,0.379,0.627,0.570,0.561,0.256,0.231,west-northwest,1.1,No
2015/01/02,12:00,0.589,0.378,0.627,0.569,0.564,0.257,0.230,north,0.6,No
2015/01/02,12:10,0.589,0.379,0.628,0.570,0.564,0.257,0.230,-,CALM,No
2015/01/02,12:20,0.590,0.378,0.628,0.570,0.563,0.257,0.230,west,1.8,No
2015/01/02,12:30,0.589,0.378,0.626,0.570,0.563,0.258,0.230,north-northeast,1.1,No
2015/01/02,12:40,0.589,0.379,0.629,0.568,0.563,0.256,0.230,-,CALM,No
2015/01/02,12:50,0.589,0.378,0.628,0.570,0.561,0.259,0.230,north,1.7,No
2015/01/02,13:00,0.589,0.378,0.628,0.571,0.565,0.257,0.229,north-northeast,0.9,No
2015/01/02,13:10,0.589,0.379,0.626,0.570,0.562,0.258,0.230,west-southwest,1.0,No
2015/01/02,13:20,0.591,0.377,0.627,0.569,0.562,0.258,0.230,-,CALM,No
2015/01/02,13:30,0.590,0.379,0.628,0.569,0.562,0.258,0.230,west-northwest,0.6,No
2015/01/02,13:40,0.592,0.378,0.629,0.569,0.562,0.258,0.229,west,4.1,No
2015/01/02,13:50,0.590,0.379,0.629,0.570,0.564,0.258,0.229,west,2.8,No
2015/01/02,14:00,0.591,0.379,0.627,0.570,0.563,0.258,0.231,southwest,3.6,No
2015/01/02,14:10,0.589,0.378,0.628,0.570,0.562,0.257,0.230,southwest,3.4,No
2015/01/02,14:20,0.592,0.379,0.628,0.571,0.564,0.257,0.230,west-southwest,4.6,No
2015/01/02,14:30,0.590,0.377,0.627,0.570,0.564,0.259,0.229,southwest,3.4,No
2015/01/02,14:40,0.590,0.377,0.629,0.569,0.565,0.257,0.229,west-southwest,4.8,No
2015/01/02,14:50,0.591,0.378,0.628,0.571,0.564,0.258,0.231,west,2.8,No
2015/01/02,15:00,0.591,0.378,0.628,0.570,0.565,0.258,0.230,southwest,1.6,No
2015/01/02,15:10,0.592,0.380,0.628,0.570,0.564,0.258,0.229,southwest,3.1,No
2015/01/02,15:20,0.592,0.378,0.629,0.570,0.563,0.257,0.231,west,2.2,No
2015/01/02,15:30,0.592,0.380,0.628,0.572,0.563,0.257,0.230,southwest,2.0,No
2015/01/02,15:40,0.591,0.378,0.627,0.569,0.564,0.257,0.230,southwest,1.9,No
2015/01/02,15:50,0.591,0.378,0.627,0.571,0.561,0.258,0.228,-,CALM,No
2015/01/02,16:00,0.590,0.379,0.628,0.571,0.564,0.258,0.231,west-northwest,0.7,No
2015/01/02,16:10,0.590,0.378,0.630,0.571,0.566,0.259,0.230,west-northwest,0.6,No
2015/01/02,16:20,0.591,0.379,0.629,0.570,0.562,0.258,0.229,west,0.9,No
2015/01/02,16:30,0.591,0.378,0.630,0.569,0.563,0.257,0.230,west,1.3,No
2015/01/02,16:40,0.592,0.377,0.628,0.570,0.564,0.259,0.230,west,3.3,No
2015/01/02,16:50,0.592,0.378,0.630,0.571,0.564,0.258,0.231,southwest,2.5,No
2015/01/02,17:00,0.590,0.378,0.629,0.569,0.564,0.258,0.231,west-southwest,3.6,No
2015/01/02,17:10,0.589,0.378,0.629,0.570,0.565,0.259,0.231,west-southwest,4.2,No
2015/01/02,17:20,0.591,0.379,0.628,0.571,0.563,0.259,0.231,west,5.0,No
2015/01/02,17:30,0.592,0.378,0.627,0.569,0.562,0.260,0.231,west,3.7,No
2015/01/02,17:40,0.591,0.378,0.628,0.571,0.565,0.259,0.231,west-northwest,5.3,No
2015/01/02,17:50,0.592,0.380,0.628,0.570,0.565,0.258,0.230,west,6.6,No
2015/01/02,18:00,0.592,0.377,0.628,0.570,0.563,0.258,0.231,west-northwest,4.2,No
2015/01/02,18:10,0.590,0.377,0.628,0.570,0.564,0.258,0.231,northwest,2.7,No
2015/01/02,18:20,0.590,0.375,0.629,0.569,0.565,0.258,0.231,west,2.2,No
2015/01/02,18:30,0.591,0.378,0.629,0.569,0.563,0.258,0.232,west,3.6,No
2015/01/02,18:40,0.591,0.378,0.629,0.571,0.563,0.258,0.231,west-southwest,1.7,No
2015/01/02,18:50,0.591,0.379,0.628,0.570,0.564,0.259,0.232,west-northwest,3.8,No
2015/01/02,19:00,0.591,0.377,0.628,0.571,0.564,0.258,0.232,west,4.8,No
2015/01/02,19:10,0.591,0.377,0.629,0.569,0.563,0.259,0.230,west,2.4,No
2015/01/02,19:20,0.591,0.377,0.628,0.571,0.564,0.261,0.231,west-northwest,2.1,No
2015/01/02,19:30,0.592,0.379,0.628,0.568,0.563,0.258,0.231,northwest,2.8,No
2015/01/02,19:40,0.590,0.378,0.629,0.567,0.563,0.259,0.231,west-northwest,4.6,No
2015/01/02,19:50,0.590,0.378,0.629,0.569,0.564,0.259,0.232,west-northwest,6.2,No
2015/01/02,20:00,0.591,0.379,0.628,0.569,0.563,0.258,0.231,west,7.0,No
2015/01/02,20:10,0.590,0.377,0.628,0.569,0.564,0.258,0.231,west,8.7,No
2015/01/02,20:20,0.591,0.378,0.628,0.570,0.565,0.259,0.230,west,10.9,No
2015/01/02,20:30,0.593,0.378,0.629,0.570,0.564,0.258,0.231,west,10.4,No
2015/01/02,20:40,0.590,0.379,0.629,0.570,0.563,0.258,0.231,west-northwest,7.7,No
2015/01/02,20:50,0.592,0.377,0.629,0.569,0.564,0.258,0.231,west,6.1,No
2015/01/02,21:00,0.592,0.378,0.629,0.570,0.564,0.260,0.231,west-northwest,7.0,No
2015/01/02,21:10,0.592,0.378,0.629,0.570,0.563,0.258,0.231,west,7.2,No
2015/01/02,21:20,0.592,0.378,0.629,0.571,0.563,0.259,0.231,west,6.9,No
2015/01/02,21:30,0.591,0.379,0.627,0.571,0.562,0.259,0.231,west-northwest,8.1,No
2015/01/02,21:40,0.592,0.379,0.629,0.570,0.564,0.259,0.231,west-northwest,9.6,No
2015/01/02,21:50,0.591,0.377,0.628,0.571,0.565,0.259,0.232,west-northwest,7.3,No
2015/01/02,22:00,0.591,0.378,0.630,0.568,0.564,0.259,0.231,northwest,3.1,No
2015/01/02,22:10,0.591,0.379,0.628,0.570,0.564,0.259,0.230,northwest,2.5,No
2015/01/02,22:20,0.592,0.379,0.630,0.571,0.564,0.258,0.231,northwest,2.7,No
2015/01/02,22:30,0.592,0.380,0.630,0.570,0.563,0.258,0.230,north-northwest,3.1,No
2015/01/02,22:40,0.591,0.378,0.628,0.570,0.564,0.258,0.230,north,4.3,No
2015/01/02,22:50,0.591,0.378,0.629,0.570,0.564,0.259,0.230,north-northeast,2.9,No
2015/01/02,23:00,0.592,0.378,0.628,0.571,0.563,0.259,0.231,north,1.6,No
2015/01/02,23:10,0.592,0.379,0.628,0.570,0.563,0.258,0.231,west-northwest,2.4,No
2015/01/02,23:20,0.590,0.378,0.629,0.571,0.564,0.259,0.230,northwest,1.9,No
2015/01/02,23:30,0.590,0.379,0.629,0.569,0.564,0.259,0.230,north,2.1,No
2015/01/02,23:40,0.592,0.378,0.629,0.569,0.563,0.259,0.232,north,2.0,No
2015/01/02,23:50,0.592,0.378,0.628,0.571,0.565,0.259,0.232,-,CALM,No
